DW4743 Weather Reports


time (UTC)temp
C
wind
direction
speed
KPH
gust
KPH
rain 1hr
cm
rain 24hr
cm
rain mn
cm
humidity
%
barometer
mb
20260507005308 7 145 0.0 4.8 0.00 0.03 0.00 100 1012.9
20260507004311 7 155 1.6 3.2 0.00 0.03 0.00 100 1013.0
20260507001309 7 147 4.8 4.8 0.00 0.03 0.00 100 1013.1
20260506235808 7 179 1.6 3.2 0.00 0.03 0.00 100 1013.3
20260506235308 7 175 1.6 3.2 0.00 0.03 0.00 100 1013.3
20260506234808 7 183 0.0 1.6 0.00 0.03 0.00 100 1013.4
20260506234308 7 241 0.0 3.2 0.00 0.03 0.00 100 1013.4
20260506230808 7 278 3.2 4.8 0.00 0.03 0.00 100 1013.8
20260506225807 7 271 3.2 4.8 0.00 0.03 0.00 100 1013.8
20260506223308 7 298 1.6 3.2 0.00 0.03 0.00 100 1013.9
20260506222307 7 271 1.6 3.2 0.00 0.03 0.00 100 1014.1
20260506221808 7 263 1.6 3.2 0.00 0.03 0.00 100 1014.1
20260506221308 7 292 1.6 3.2 0.00 0.03 0.00 100 1014.2
20260506215307 8 5 4.8 4.8 0.00 0.03 0.03 100 1014.3
20260506214810 8 6 4.8 4.8 0.00 0.03 0.03 100 1014.3
20260506213808 8 9 3.2 4.8 0.00 0.03 0.03 100 1014.3
20260506213308 8 342 3.2 4.8 0.00 0.03 0.03 100 1014.3
20260506212808 8 6 3.2 4.8 0.00 0.03 0.03 100 1014.3
20260506212308 8 33 3.2 8.0 0.00 0.03 0.03 100 1014.2
20260506211808 8 41 4.8 9.7 0.00 0.03 0.03 100 1014.2
20260506211308 8 44 4.8 11.3 0.00 0.03 0.03 100 1014.2
20260506210808 8 51 8.0 11.3 0.00 0.03 0.03 100 1014.2
20260506205307 8 16 4.8 8.0 0.00 0.03 0.03 100 1014.1
20260506203308 8 354 6.4 9.7 0.00 0.03 0.03 99 1014.0
20260506202808 8 356 8.0 9.7 0.00 0.03 0.03 99 1014.0
20260506202307 8 11 8.0 9.7 0.00 0.03 0.03 99 1013.9
20260506201808 8 30 4.8 8.0 0.00 0.03 0.03 99 1013.9
20260506201308 8 46 4.8 9.7 0.00 0.03 0.03 99 1013.9
20260506200808 8 47 8.0 9.7 0.00 0.03 0.03 99 1013.8
20260506200307 8 38 4.8 12.9 0.00 0.03 0.03 99 1013.8
20260506195808 8 60 8.0 12.9 0.00 0.03 0.03 99 1013.8
20260506194808 9 58 8.0 12.9 0.00 0.03 0.03 99 1013.8
20260506194308 9 44 9.7 19.3 0.00 0.03 0.03 99 1013.7
20260506193807 9 37 11.3 20.9 0.00 0.03 0.03 99 1013.7
20260506193308 10 51 11.3 22.5 0.00 0.03 0.03 99 1013.6
20260506192808 10 54 14.5 24.1 0.00 0.03 0.03 99 1013.5
20260506191308 10 58 19.3 32.2 0.00 0.03 0.03 100 1013.5
20260506190307 11 45 19.3 33.8 0.00 0.03 0.03 100 1013.3
20260506185808 11 44 22.5 33.8 0.00 0.03 0.03 100 1013.2
20260506184807 12 53 19.3 35.4 0.00 0.03 0.03 100 1013.2
20260506183808 12 56 22.5 35.4 0.00 0.03 0.03 100 1013.2
20260506182807 12 52 27.4 32.2 0.00 0.03 0.03 100 1013.1
20260506181308 12 59 19.3 35.4 0.00 0.03 0.03 100 1013.2
20260506180307 13 1 12.9 19.3 0.00 0.03 0.03 100 1013.1
20260506175807 13 346 12.9 19.3 0.00 0.03 0.03 100 1013.1
20260506175308 13 6 11.3 19.3 0.00 0.03 0.03 100 1013.2
20260506173807 13 20 12.9 19.3 0.00 0.03 0.03 99 1013.2
20260506172807 13 27 12.9 24.1 0.00 0.03 0.03 96 1013.1
20260506172308 13 20 14.5 27.4 0.00 0.03 0.03 95 1013.1
20260506171308 14 51 24.1 27.4 0.00 0.03 0.03 92 1013.2
20260506170807 15 55 19.3 25.7 0.00 0.03 0.03 92 1013.1
20260506170307 15 25 19.3 24.1 0.00 0.03 0.03 91 1013.2
20260506165808 15 7 14.5 25.7 0.00 0.03 0.03 92 1013.1
20260506163807 15 337 16.1 24.1 0.00 0.03 0.03 93 1013.4
20260506162807 13 312 19.3 24.1 0.00 0.03 0.03 95 1013.5
20260506162307 13 312 16.1 24.1 0.00 0.03 0.03 93 1013.5
20260506161808 13 321 17.7 27.4 0.00 0.03 0.03 93 1013.5
20260506161307 13 319 17.7 27.4 0.00 0.03 0.03 92 1013.5
20260506160808 14 310 22.5 25.7 0.00 0.03 0.03 92 1013.5
20260506160307 14 350 17.7 24.1 0.00 0.03 0.03 93 1013.5
20260506155807 15 0 16.1 22.5 0.00 0.03 0.03 94 1013.5
20260506155308 14 336 14.5 27.4 0.00 0.03 0.03 94 1013.6
20260506154807 14 302 19.3 27.4 0.00 0.05 0.03 95 1013.6
20260506154309 13 334 17.7 29.0 0.00 0.05 0.03 94 1013.6
20260506153307 13 10 14.5 24.1 0.00 0.05 0.03 96 1013.7
20260506150807 13 18 11.3 22.5 0.00 0.05 0.03 94 1014.1
20260506145807 14 29 16.1 24.1 0.00 0.33 0.03 97 1014.3
20260506145307 14 350 17.7 24.1 0.00 0.56 0.03 97 1014.3
20260506144307 13 311 19.3 25.7 0.00 0.61 0.03 100 1014.4
20260506143807 13 307 20.9 25.7 0.00 0.61 0.03 99 1014.5
20260506143308 13 325 19.3 25.7 0.00 0.61 0.03 99 1014.6
20260506141808 13 311 19.3 32.2 0.00 0.61 0.03 98 1014.5
20260506141308 13 302 25.7 32.2 0.00 0.61 0.03 99 1014.6
20260506140807 13 338 20.9 29.0 0.00 0.61 0.03 100 1014.7
20260506135807 13 3 20.9 27.4 0.00 0.61 0.03 99 1014.7
20260506134308 14 326 20.9 25.7 0.00 0.64 0.03 95 1014.7
20260506133307 15 324 14.5 24.1 0.00 0.64 0.03 89 1014.5
20260506132307 16 38 14.5 24.1 0.00 0.64 0.03 79 1014.4
20260506131808 16 348 1.6 12.9 0.00 0.64 0.03 77 1014.4
20260506130808 16 103 6.4 19.3 0.00 0.64 0.03 81 1014.5
20260506125307 16 43 8.0 19.3 0.00 0.64 0.03 82 1014.6
20260506124808 16 36 8.0 12.9 0.00 0.64 0.03 87 1014.6
20260506123308 15 224 3.2 4.8 0.00 0.74 0.03 85 1014.9
20260506121808 14 77 9.7 16.1 0.00 0.74 0.03 88 1015.2
20260506121307 14 92 8.0 16.1 0.00 0.74 0.03 89 1015.2
20260506120807 14 112 6.4 11.3 0.00 0.76 0.03 88 1015.2
20260506115307 14 129 9.7 20.9 0.00 0.84 0.03 88 1015.3
20260506113808 15 88 8.0 19.3 0.00 0.89 0.03 90 1015.4
20260506112807 15 74 11.3 20.9 0.00 0.89 0.03 91 1015.5
20260506112307 14 127 4.8 16.1 0.00 0.89 0.03 92 1015.6
20260506110807 14 125 8.0 16.1 0.00 0.89 0.03 91 1015.7
20260506105807 14 135 8.0 19.3 0.00 0.89 0.03 97 1015.8
20260506104807 13 118 11.3 19.3 0.00 0.89 0.03 100 1015.8
20260506104307 13 83 9.7 19.3 0.00 0.89 0.03 100 1015.9
20260506102807 13 119 9.7 16.1 0.00 0.89 0.03 100 1016.2
20260506102309 12 111 9.7 14.5 0.00 0.89 0.03 100 1016.1
20260506101307 11 80 1.6 8.0 0.00 0.91 0.03 100 1016.2
20260506100307 11 135 1.6 8.0 0.00 0.99 0.03 100 1016.2
20260506095807 11 7 3.2 8.0 0.00 0.99 0.03 100 1016.1
20260506094307 11 295 9.7 14.5 0.00 0.99 0.03 100 1016.2
20260506093807 11 296 8.0 12.9 0.00 0.99 0.03 100 1016.2
20260506092307 11 291 8.0 16.1 0.00 0.99 0.03 100 1016.1
20260506091807 11 272 9.7 16.1 0.00 0.99 0.03 100 1016.2
20260506085307 12 221 3.2 9.7 0.00 0.99 0.03 100 1016.1
20260506084307 11 257 3.2 8.0 0.00 0.99 0.03 100 1016.2
20260506083807 11 262 3.2 8.0 0.00 0.99 0.03 100 1016.2
20260506083307 11 243 3.2 9.7 0.00 0.99 0.03 100 1016.2
20260506082807 10 179 4.8 9.7 0.00 0.99 0.03 100 1016.3
20260506082308 10 339 3.2 9.7 0.00 0.99 0.03 100 1016.3
20260506080807 10 54 4.8 9.7 0.00 0.99 0.03 100 1016.5
20260506080307 10 0 4.8 8.0 0.00 0.99 0.03 100 1016.5
20260506072307 8 339 4.8 8.0 0.00 1.07 0.03 100 1016.4
20260506071807 8 305 4.8 8.0 0.00 1.07 0.03 100 1016.4
20260506070807 8 56 1.6 4.8 0.00 1.07 0.03 100 1016.3
20260506062307 8 157 1.6 4.8 0.00 1.07 0.03 100 1016.1
20260506061807 8 203 1.6 4.8 0.00 1.07 0.03 100 1016.0
20260506061307 8 214 1.6 3.2 0.00 1.07 0.03 100 1016.0
20260506050806 7 320 1.6 3.2 0.00 1.07 0.03 100 1016.0
20260506050307 7 4 1.6 3.2 0.00 1.07 0.03 100 1015.9
20260506044807 7 11 1.6 3.2 0.00 1.07 0.03 100 1015.9
20260506044307 7 195 0.0 1.6 0.00 1.07 0.03 100 1016.0
20260506043807 8 173 1.6 1.6 0.00 1.07 0.03 100 1016.0
20260506043306 8 246 0.0 3.2 0.00 1.07 0.03 100 1016.0
20260506041307 7 259 1.6 3.2 0.00 1.07 0.03 100 1016.0
20260506040807 7 245 1.6 3.2 0.00 1.07 0.03 100 1016.1
20260506040307 7 11 0.0 3.2 0.00 1.07 0.03 100 1016.1
20260506035307 7 244 1.6 3.2 0.00 1.07 0.03 100 1016.0
20260506034807 7 190 1.6 4.8 0.00 1.07 0.03 100 1016.0
20260506033307 7 113 1.6 3.2 0.03 1.07 0.03 100 1016.1
20260506032807 7 137 1.6 4.8 0.03 1.07 0.03 100 1016.2
20260506031806 7 186 0.0 3.2 0.03 1.07 0.03 100 1016.2
20260506030307 7 153 1.6 8.0 0.03 1.07 0.03 100 1016.2
20260506025806 7 163 4.8 8.0 0.03 1.07 0.03 100 1016.2
20260506024807 6 151 3.2 4.8 0.03 1.07 0.03 100 1016.2
20260506024307 6 129 3.2 4.8 0.03 1.07 0.03 100 1016.2
20260506023307 6 114 1.6 3.2 0.00 1.04 0.00 100 1016.3
20260506022307 6 105 1.6 4.8 0.00 1.04 0.00 100 1016.2
20260506021307 6 152 3.2 4.8 0.00 1.04 0.00 100 1016.3
20260506015307 7 175 3.2 8.0 0.00 1.07 0.00 100 1016.5
20260506013807 7 209 4.8 8.0 0.00 1.09 0.00 100 1016.5
20260506013306 7 223 4.8 8.0 0.00 1.09 0.00 100 1016.6
20260506011807 7 152 3.2 4.8 0.00 1.09 0.00 100 1016.6
20260506011307 7 102 3.2 4.8 0.00 1.09 0.00 100 1016.8
20260506010806 7 98 3.2 4.8 0.00 1.09 0.00 100 1016.8
20260506010307 8 157 1.6 3.2 0.00 1.09 0.00 100 1016.9
20260506005806 8 265 1.6 3.2 0.00 1.09 0.00 100 1016.9